Location: Buckland
(65.9785°N, 161.1281°W)
Time: 03:54:23
(UTC+00:00)

Transit 4A - Pass Details

Date: 01 December 2020
Orbit: 864 x 980 km, 66.8° (Epoch: 26 January)

Event Time Altitude Azimuth Distance (km) Brightness Sun altitude
Rises 01:28:18 0° 299° (WNW) 3,695 11.2 -3.8°
Reaches altitude 10° 01:30:55 10° 296° (WNW) 2,743 10.6 -4.0°
Maximum altitude 01:37:12 57° 220° (SW) 1,136 8.9 -4.4°
Drops below altitude 10° 01:43:21 10° 144° (SE) 2,693 10.5 -4.8°
Sets 01:45:54 0° 140° (SE) 3,622 11.1 -5.0°
